sat.trackr.live / text

‹ back to catalog

STARLINK-36745

NORAD 68257 · 2026-054AB

PAYLOAD ACTIVE UNKNOWN

§ Identity

Operator
Country
US
Launch date
2026-03-17
Launch site
AFETR
Launch vehicle
Mass (kg)
RCS (m²)

Purposes: comms

External: N2YO · Heavens-Above · Gunter

§ Orbital elements

Epoch: 2026-05-24T15:47:18.257280Z

Period
93.85 min
Inclination
53.1601°
Eccentricity
0.0001109
Mean motion
15.34404686 rev/d
Perigee alt
461.9 km
Apogee alt
463.4 km
Semi-major
6,840.8 km
B*
5.6957e-4
RAAN
297.4951°
Arg perigee
83.9649°
Mean anomaly
276.1480°
Rev number
1,071

§ Raw data

STARLINK-367451 68257U 26054AB  26144.65785020  .00018919  00000+0  56957-3 0  99972 68257  53.1601 297.4951 0001109  83.9649 276.1480 15.34404686 10711

JSON: /api/v1/satellites/68257 · /tle

For live sub-satellite position, see the globe view (requires WebGL).

§ Visibility from observer

Set your observer location to see the next 7 days of passes ≥ 10°. The values pass through the URL so the page stays shareable.

No JS? Fill the form by hand. The geolocation button needs JavaScript.